| time (UTC) | temp F | wind direction | speed MPH | gust MPH | rain 1hr in | rain 24hr in | rain mn in | humidity % | barometer mb |
| 20260509224534 | 66 | 17 | 6.0 | 10.0 | 0.00 | 0.21 | 0.18 | 44 | 1020.0 |
| 20260509223030 | 66 | 81 | 2.0 | 8.0 | 0.00 | 0.21 | 0.18 | 45 | 1020.1 |
| 20260509221533 | 67 | 323 | 9.0 | 11.0 | 0.00 | 0.21 | 0.18 | 46 | 1020.2 |
| 20260509220032 | 66 | 323 | 4.0 | 10.0 | 0.00 | 0.21 | 0.18 | 46 | 1020.3 |
| 20260509214532 | 65 | 14 | 5.0 | 11.0 | 0.00 | 0.21 | 0.18 | 47 | 1020.5 |
| 20260509213030 | 64 | 308 | 2.0 | 7.0 | 0.00 | 0.21 | 0.18 | 51 | 1020.6 |
| 20260509211535 | 64 | 273 | 0.0 | 6.0 | 0.00 | 0.21 | 0.18 | 51 | 1020.5 |
| 20260509210032 | 64 | 105 | 4.0 | 8.0 | 0.00 | 0.21 | 0.18 | 53 | 1020.3 |
| 20260509204530 | 63 | 55 | 1.0 | 9.0 | 0.00 | 0.21 | 0.18 | 54 | 1020.4 |
| 20260509203036 | 62 | 34 | 1.0 | 11.0 | 0.00 | 0.21 | 0.18 | 55 | 1020.7 |
| 20260509201533 | 62 | 148 | 1.0 | 6.0 | 0.00 | 0.21 | 0.18 | 55 | 1020.8 |
| 20260509200030 | 61 | 17 | 2.0 | 9.0 | 0.00 | 0.21 | 0.18 | 57 | 1021.0 |
| 20260509194536 | 61 | 24 | 4.0 | 8.0 | 0.00 | 0.21 | 0.18 | 56 | 1021.2 |
| 20260509193032 | 60 | 50 | 2.0 | 5.0 | 0.00 | 0.21 | 0.18 | 59 | 1021.3 |
| 20260509191534 | 59 | 0 | 1.0 | 4.0 | 0.00 | 0.21 | 0.18 | 58 | 1021.3 |
| 20260509190034 | 59 | 242 | 0.0 | 7.0 | 0.00 | 0.21 | 0.18 | 61 | 1021.4 |
| 20260509184534 | 59 | 240 | 3.0 | 8.0 | 0.00 | 0.21 | 0.18 | 64 | 1021.3 |
| 20260509183033 | 58 | 316 | 3.0 | 7.0 | 0.00 | 0.21 | 0.18 | 60 | 1021.3 |
| 20260509181542 | 58 | 169 | 2.0 | 10.0 | 0.00 | 0.21 | 0.18 | 65 | 1021.3 |
| 20260509180030 | 57 | 190 | 4.0 | 9.0 | 0.00 | 0.21 | 0.18 | 67 | 1021.2 |
| 20260509174532 | 57 | 221 | 5.0 | 9.0 | 0.00 | 0.21 | 0.18 | 67 | 1021.1 |
| 20260509173032 | 55 | 212 | 4.0 | 10.0 | 0.00 | 0.21 | 0.18 | 73 | 1021.0 |
| 20260509171532 | 54 | 177 | 6.0 | 11.0 | 0.00 | 0.21 | 0.18 | 79 | 1021.0 |
| 20260509170030 | 53 | 194 | 5.0 | 9.0 | 0.00 | 0.21 | 0.18 | 81 | 1021.1 |
| 20260509164529 | 53 | 186 | 5.0 | 10.0 | 0.00 | 0.21 | 0.18 | 84 | 1021.0 |
| 20260509163033 | 52 | 171 | 4.0 | 9.0 | 0.00 | 0.21 | 0.18 | 86 | 1020.9 |
| 20260509161534 | 51 | 178 | 5.0 | 9.0 | 0.01 | 0.21 | 0.18 | 87 | 1020.9 |
| 20260509160032 | 51 | 165 | 5.0 | 8.0 | 0.01 | 0.21 | 0.18 | 88 | 1020.6 |
| 20260509154531 | 51 | 182 | 3.0 | 7.0 | 0.01 | 0.21 | 0.18 | 88 | 1020.6 |
| 20260509153031 | 50 | 157 | 3.0 | 6.0 | 0.01 | 0.21 | 0.18 | 89 | 1020.3 |
| 20260509151529 | 50 | 129 | 1.0 | 4.0 | 0.00 | 0.20 | 0.17 | 89 | 1020.2 |
| 20260509150224 | 50 | 129 | 3.0 | 5.0 | 0.00 | 0.20 | 0.17 | 90 | 1020.0 |
| 20260509140029 | 49 | 178 | 4.0 | 7.0 | 0.00 | 0.20 | 0.17 | 87 | 1019.9 |
| 20260509134530 | 49 | 213 | 4.0 | 8.0 | 0.01 | 0.20 | 0.17 | 88 | 1019.9 |
| 20260509133033 | 49 | 186 | 5.0 | 8.0 | 0.01 | 0.20 | 0.17 | 89 | 1019.8 |
| 20260509131530 | 49 | 221 | 2.0 | 5.0 | 0.02 | 0.20 | 0.17 | 90 | 1019.7 |
| 20260509130032 | 49 | 0 | 1.0 | 3.0 | 0.02 | 0.20 | 0.17 | 90 | 1019.5 |
| 20260509124532 | 49 | 196 | 1.0 | 4.0 | 0.01 | 0.19 | 0.16 | 89 | 1019.3 |
| 20260509123029 | 49 | 196 | 4.0 | 7.0 | 0.01 | 0.19 | 0.16 | 89 | 1019.1 |
| 20260509121536 | 49 | 198 | 4.0 | 9.0 | 0.00 | 0.18 | 0.15 | 88 | 1018.9 |
| 20260509120031 | 49 | 194 | 5.0 | 10.0 | 0.00 | 0.18 | 0.15 | 88 | 1018.8 |
| 20260509114529 | 49 | 173 | 5.0 | 8.0 | 0.00 | 0.18 | 0.15 | 88 | 1018.7 |
| 20260509113034 | 49 | 189 | 3.0 | 6.0 | 0.00 | 0.18 | 0.15 | 87 | 1018.7 |
| 20260509111529 | 49 | 181 | 5.0 | 9.0 | 0.00 | 0.18 | 0.15 | 88 | 1018.5 |
| 20260509110035 | 49 | 227 | 4.0 | 6.0 | 0.00 | 0.18 | 0.15 | 88 | 1018.4 |
| 20260509104539 | 49 | 48 | 1.0 | 3.0 | 0.00 | 0.18 | 0.15 | 91 | 1018.4 |
| 20260509103029 | 49 | 0 | 0.0 | 2.0 | 0.01 | 0.18 | 0.15 | 90 | 1018.3 |
| 20260509101534 | 49 | 48 | 2.0 | 3.0 | 0.01 | 0.18 | 0.15 | 90 | 1018.2 |
| 20260509100029 | 49 | 47 | 2.0 | 5.0 | 0.02 | 0.18 | 0.15 | 90 | 1018.1 |
| 20260509094532 | 49 | 22 | 3.0 | 5.0 | 0.03 | 0.18 | 0.15 | 89 | 1018.1 |
| 20260509093042 | 49 | 258 | 2.0 | 3.0 | 0.03 | 0.17 | 0.14 | 88 | 1018.0 |
| 20260509091530 | 49 | 258 | 1.0 | 3.0 | 0.05 | 0.17 | 0.14 | 88 | 1018.0 |
| 20260509090030 | 50 | 258 | 1.0 | 3.0 | 0.05 | 0.16 | 0.13 | 88 | 1017.8 |
| 20260509084542 | 50 | 258 | 1.0 | 6.0 | 0.06 | 0.15 | 0.12 | 86 | 1017.4 |
| 20260509083029 | 50 | 258 | 3.0 | 9.0 | 0.07 | 0.14 | 0.11 | 86 | 1017.4 |
| 20260509081537 | 50 | 260 | 5.0 | 9.0 | 0.07 | 0.12 | 0.09 | 85 | 1017.4 |
| 20260509080041 | 51 | 232 | 4.0 | 7.0 | 0.08 | 0.11 | 0.08 | 85 | 1017.3 |
| 20260509074533 | 51 | 285 | 2.0 | 4.0 | 0.06 | 0.09 | 0.06 | 82 | 1017.1 |
| 20260509073034 | 52 | 306 | 2.0 | 4.0 | 0.04 | 0.07 | 0.04 | 80 | 1017.1 |
| 20260509071528 | 53 | 49 | 3.0 | 6.0 | 0.02 | 0.05 | 0.02 | 76 | 1017.0 |
| 20260509070032 | 54 | 0 | 1.0 | 8.0 | 0.00 | 0.03 | 0.00 | 73 | 1016.8 |
| 20260509064533 | 55 | 273 | 6.0 | 12.0 | 0.00 | 0.03 | 0.00 | 71 | 1016.4 |
| 20260509063030 | 55 | 273 | 5.0 | 9.0 | 0.00 | 0.03 | 0.00 | 69 | 1016.3 |
| 20260509061532 | 56 | 288 | 7.0 | 13.0 | 0.01 | 0.03 | 0.00 | 67 | 1016.2 |
| 20260509050038 | 58 | 293 | 4.0 | 11.0 | 0.00 | 0.00 | 0.00 | 59 | 1014.9 |
| 20260509044530 | 61 | 295 | 6.0 | 11.0 | 0.00 | 0.00 | 0.00 | 44 | 1014.5 |
| 20260509043029 | 61 | 331 | 6.0 | 8.0 | 0.00 | 0.00 | 0.00 | 44 | 1014.1 |
| 20260509041531 | 62 | 272 | 5.0 | 8.0 | 0.00 | 0.00 | 0.00 | 42 | 1013.6 |
| 20260509040032 | 62 | 279 | 3.0 | 7.0 | 0.00 | 0.00 | 0.00 | 43 | 1013.4 |
| 20260509034530 | 62 | 308 | 4.0 | 7.0 | 0.00 | 0.00 | 0.00 | 42 | 1013.1 |
| 20260509033030 | 62 | 288 | 4.0 | 7.0 | 0.00 | 0.00 | 0.00 | 42 | 1012.9 |
| 20260509031533 | 63 | 273 | 3.0 | 6.0 | 0.00 | 0.00 | 0.00 | 41 | 1012.7 |
| 20260509030030 | 64 | 283 | 3.0 | 9.0 | 0.00 | 0.00 | 0.00 | 40 | 1012.5 |
| 20260509024530 | 66 | 288 | 6.0 | 11.0 | 0.00 | 0.00 | 0.00 | 37 | 1012.1 |
| 20260509023035 | 67 | 296 | 8.0 | 13.0 | 0.00 | 0.00 | 0.00 | 36 | 1012.0 |
| 20260509021534 | 67 | 295 | 8.0 | 13.0 | 0.00 | 0.00 | 0.00 | 36 | 1011.9 |
| 20260509020035 | 68 | 302 | 9.0 | 15.0 | 0.00 | 0.00 | 0.00 | 34 | 1011.7 |
| 20260509014542 | 69 | 312 | 12.0 | 17.0 | 0.00 | 0.00 | 0.00 | 32 | 1011.9 |
| 20260509013035 | 69 | 316 | 10.0 | 17.0 | 0.00 | 0.00 | 0.00 | 31 | 1011.7 |
| 20260509011536 | 70 | 312 | 13.0 | 21.0 | 0.00 | 0.00 | 0.00 | 29 | 1011.6 |
| 20260509010033 | 70 | 336 | 14.0 | 19.0 | 0.00 | 0.00 | 0.00 | 29 | 1011.6 |
| 20260509004530 | 71 | 308 | 15.0 | 22.0 | 0.00 | 0.00 | 0.00 | 29 | 1011.5 |
| 20260509003034 | 71 | 310 | 15.0 | 21.0 | 0.00 | 0.00 | 0.00 | 29 | 1011.4 |
| 20260509001530 | 72 | 313 | 13.0 | 20.0 | 0.00 | 0.00 | 0.00 | 29 | 1011.4 |
| 20260509000029 | 72 | 316 | 14.0 | 20.0 | 0.00 | 0.00 | 0.00 | 28 | 1011.4 |
| 20260508234535 | 72 | 316 | 13.0 | 20.0 | 0.00 | 0.00 | 0.00 | 27 | 1011.4 |
| 20260508233045 | 73 | 303 | 9.0 | 15.0 | 0.00 | 0.00 | 0.00 | 26 | 1011.5 |
| 20260508231533 | 73 | 296 | 8.0 | 18.0 | 0.00 | 0.00 | 0.00 | 25 | 1011.5 |
| 20260508230029 | 73 | 275 | 12.0 | 19.0 | 0.00 | 0.00 | 0.00 | 26 | 1011.6 |